Tracking 20037 objects as of 17-Nov-2019
Live streaming from Space Station
objects crossing your sky now

COSMOS 1375 DEB

Track COSMOS 1375 DEB now!
10-day predictions


NORAD ID: 18477
Int'l Code: 1982-055BF
Perigee: 818.3 km
Apogee: 858.3 km
Inclination: 65.8 °
Period: 101.5 minutes
Semi major axis: 7209 km
RCS: 0.0083 m2 (small)
Launch date: June 6, 1982
Source: Commonwealth of Independent States (former USSR) (CIS)
Launch site: PLESETSK MISSILE AND SPACE COMPLEX (PKMTR)

Note: This is SATELLITE DEBRIS
aabbcc
Your satellite tracking list
Your tracking list is empty




NASA's NSSDC Master Catalog

Two Line Element Set (TLE):
1 18477U 82055BF  19320.69869085  .00000881  00000-0  46906-3 0  9998
2 18477  65.8258 216.2337 0027719 207.1349 152.8288 14.18290099735090
Source of the keplerian elements: AFSPC